Jaipur, India

6:12 PM IST on May 30, 2017 (GMT +0530)
Jaipur

Weather History for VIJP - March, 2013

Change the Weather History Date:

Friday, March 15, 2013

  Actual Average Record
Temperature  
Mean Temperature 77 °F -  
Max Temperature 89 °F - - ()
Min Temperature 65 °F - - ()
Cooling Degree Days 12    
Growing Degree Days 27 (Base 50)    
Moisture  
Dew Point 42 °F    
Average Humidity 31    
Maximum Humidity 73    
Minimum Humidity 8    
Precipitation  
Precipitation 0.00 in - - ()
Sea Level Pressure  
Sea Level Pressure 30.02 in    
Wind  
Wind Speed 4 mph ()    
Max Wind Speed 9 mph    
Max Gust Speed -    
Visibility 2.1 miles    
Events      
T = Trace of Precipitation, MM = Missing Value Source: Averaged Metar Reports

Daily Weather History Graph

Daily Weather History Graph

Search for Another Location

Airport or City:

Trip Planner

Search our weather history database for the weather conditions in past years. The results will help you decide how hot, cold, wet, or windy it might be!

Date:

Astronomy

Mar. 15, 2013 Rise Set
Actual Time 6:36 AM IST 6:35 PM IST
Civil Twilight 6:13 AM IST 6:58 PM IST
Nautical Twilight 5:46 AM IST 7:25 PM IST
Astronomical Twilight 5:19 AM IST 7:52 PM IST
Moon 8:31 AM IST (3/15) 9:58 PM IST (3/15)
Length of Visible Light 12h 45m
Length of Day
11h 59m
Waxing Crescent, 12% of the Moon is Illuminated
Mar 15
Waxing Crescent
Mar 19
First Quarter
Mar 27
Full
Apr 3
Last Quarter
Apr 10
New

Hourly Weather History & Observations

Time (IST) Temp. Dew Point Humidity Pressure Visibility Wind Dir Wind Speed Gust Speed Precip Events Conditions
12:00 AM 71.6 °F 42.8 °F 35% 30.01 in 1.9 mi Calm Calm - N/A   Haze
1:00 AM 68.0 °F 42.8 °F 40% 30.01 in 1.9 mi East 5.8 mph - N/A   Haze
2:00 AM 69.8 °F 48.2 °F 46% 30.01 in 1.9 mi NE 4.6 mph - N/A   Haze
2:30 AM 68 °F 49 °F 39% 29.96 in 1 mi East 4.6 mph - -   Haze
5:00 AM 66.2 °F 57.2 °F 73% 30.04 in 1.9 mi ENE 4.6 mph - N/A   Haze
6:00 AM 66.2 °F 55.4 °F 68% 30.04 in 1.9 mi Calm Calm - N/A   Haze
7:00 AM 68.0 °F 55.4 °F 64% 30.06 in 1.9 mi ENE 6.9 mph - N/A   Haze
8:00 AM 69.8 °F 55.4 °F 60% 30.09 in 1.9 mi East 5.8 mph - N/A   Haze
8:30 AM 73 °F 55 °F 43% 30.03 in 1 mi East 6.9 mph - -   Haze
9:00 AM 73.4 °F 51.8 °F 47% 30.12 in 2.5 mi East 8.1 mph - N/A   Haze
10:00 AM 78.8 °F 51.8 °F 39% 30.12 in 2.2 mi East 8.1 mph - N/A   Haze
11:00 AM 82.4 °F 48.2 °F 30% 30.09 in 2.2 mi East 8.1 mph - N/A   Haze
11:30 AM 84 °F 38 °F 11% 30.01 in 2 mi NNW 8.1 mph - -   Haze
1:00 PM 86.0 °F 32.0 °F 14% 30.06 in 3.1 mi Variable 4.6 mph - N/A   Haze
2:00 PM 86.0 °F 32.0 °F 14% 30.04 in 3.1 mi West 8.1 mph - N/A   Haze
2:30 PM 87 °F 36 °F 9% 29.91 in 2 mi WNW 9.2 mph - -   Haze
3:00 PM 86.0 °F 32.0 °F 14% 30.01 in 3.1 mi Variable 4.6 mph - N/A   Haze
4:00 PM 86.0 °F 32.0 °F 14% 29.98 in 3.1 mi West 8.1 mph - N/A   Haze
5:00 PM 86.0 °F 32.0 °F 14% 29.98 in 3.1 mi Variable 5.8 mph - N/A   Haze
5:30 PM 86 °F 33 °F 8% 29.91 in 2 mi West 5.8 mph - -   Haze
6:00 PM 84.2 °F 33.8 °F 16% 29.98 in 3.1 mi Variable 4.6 mph - N/A   Haze
7:00 PM 82.4 °F 35.6 °F 19% 30.01 in 2.5 mi Variable 4.6 mph - N/A   Haze
8:30 PM 77 °F 42 °F 18% 29.96 in 2 mi NNE 3.5 mph - -   Haze
9:00 PM 77.0 °F 37.4 °F 24% 30.04 in 1.9 mi Calm Calm - N/A   Haze
10:00 PM 77.0 °F 35.6 °F 22% 30.04 in 1.9 mi NE 5.8 mph - N/A   Haze
11:00 PM 73.4 °F 37.4 °F 27% 30.04 in 1.9 mi NE 4.6 mph - N/A   Haze
11:30 PM 75 °F 37 °F 16% 29.99 in 1 mi ENE 5.8 mph - -   Haze